Home > Weather > San Buenaventura > Past weeks

Flag for USA Past Weather in San Buenaventura, California, USA — Yesterday and Last 2 Weeks

Now
55 °F

Clear.


Feels Like: 54 °F
Forecast: 54 / 64 °F
Wind: 6 mph from East

Location: Oxnard Airport

Current Time: May 24, 2016 at 7:01:42 AM

Latest Report: May 24, 2016 at 5:51 AM


Visibility: 10 mi

Pressure: 29.93 "Hg

Humidity: 83%

Dew Point: 50 °F

Location of San BuenaventuraLocation

Past Weather in San Buenaventura — Graph

°F

San Buenaventura Temperature Yesterday

Maximum temperature yesterday: 67 °F (at 1:51 PM)
Minimum temperature yesterday: 52 °F (at 4:51 AM)
Average temperature yesterday: 60 °F

High & Low Weather Summary for the Past Weeks

 TemperatureHumidityPressure
High69 °F (May 17, 2:51 PM)93% (May 11, 11:00 PM)30.06 "Hg (May 11, 11:00 PM)
Low50 °F (May 21, 3:51 AM)52% (May 20, 11:51 AM)29.81 "Hg (May 20, 2:51 AM)
Average61 °F78%29.95 "Hg
* Reported May 9 4:51 AM — May 24 4:51 AM, San Buenaventura, Weather by CustomWeather, © 2016

Note: Actual official high and low records may vary slightly from our data, if they occured in-between our weather recording intervals... More about our weather records

Advertising

San Buenaventura Weather History for the Previous 24 Hours

Scroll right to see more
 ConditionsComfort  
Time TempWeatherWind HumidityBarometerVisibility
4:51 AM
Tue, May 24
55 °FClear.7 mph83%29.91 "Hg10 mi
3:51 AM58 °FOvercast.6 mph78%29.91 "Hg10 mi
2:51 AM58 °FOvercast.3 mph78%29.90 "Hg10 mi
1:51 AM58 °FPassing clouds.No wind81%29.91 "Hg10 mi
12:51 AM57 °FPassing clouds.7 mph81%29.91 "Hg10 mi
11:51 PM
Mon, May 23
57 °FClear.9 mph83%29.91 "Hg10 mi
10:51 PM57 °FPassing clouds.9 mph83%29.91 "Hg10 mi
9:51 PM58 °FClear.13 mph81%29.91 "Hg10 mi
8:51 PM59 °FSunny.12 mph78%29.88 "Hg10 mi
7:51 PM60 °FSunny.16 mph78%29.87 "Hg10 mi
6:51 PM61 °FSunny.14 mph75%29.87 "Hg10 mi
5:51 PM63 °FSunny.16 mph70%29.88 "Hg10 mi
4:51 PM65 °FSunny.18 mph61%29.89 "Hg10 mi
3:51 PM66 °FSunny.14 mph59%29.90 "Hg10 mi
2:51 PM66 °FSunny.13 mph61%29.92 "Hg10 mi
1:51 PM67 °FSunny.12 mph59%29.93 "Hg10 mi
12:51 PM65 °FSunny.12 mph66%29.94 "Hg10 mi
11:51 AM65 °FSunny.10 mph63%29.95 "Hg10 mi
10:51 AM64 °FSunny.8 mph65%29.94 "Hg10 mi
9:51 AM63 °FPassing clouds.9 mph70%29.93 "Hg10 mi
8:51 AM61 °FSunny.No wind72%29.94 "Hg10 mi
7:51 AM58 °FSunny.6 mph78%29.93 "Hg10 mi
Weather by CustomWeather, © 2016

See weather overviewHow to use our weather pages